Regional Weather Roundup
Issued by NWS Northern Indiana

Home | Current Version | Previous Version | Graphics & Text | Print | Product List | Glossary On
Versions: 1 2 3 4 5 6 7 8 9 10 11 12 13 14 15 16 17 18 19 20 21 22 23 24 25 26 27 28 29 30 31 32 33 34 35 36 37 38 39 40 41 42 43 44 45 46 47 48 49 50
000
ASUS43 KIWX 241900
RWRIWX

KIWX WEATHER ROUNDUP
NATIONAL WEATHER SERVICE NORTHERN INDIANA
300 PM EDT SUN MAY 24 2015

NOTE: "FAIR" INDICATES FEW OR NO CLOUDS BELOW 12,000 FEET WITH NO
SIGNIFICANT WEATHER AND/OR OBSTRUCTIONS TO VISIBILITY.

* THESE STATIONS ARE NOT UNDER NWS QUALITY CONTROL. THEY ALSO MAY NOT
  REPORT WEATHER SUCH AS PRECIPITATION OR FOG.

INZ001>027-242000-
NORTHERN INDIANA

CITY           SKY/WX    TMP DP  RH WIND       PRES   REMARKS
GARY*          CLOUDY    81  57  44 E12       30.07F
SOUTH BEND     CLOUDY    79  56  45 S13       30.13F
GOSHEN         CLOUDY    79  58  48 SE10      30.14F
ANGOLA*        MOSUNNY   77  59  53 SE5       30.17F
FORT WAYNE     CLOUDY    81  57  43 S15G21    30.17F
PERU/GRISSOM   MOSUNNY   83  58  42 S15       30.12F

$$
INZ028>050-242000-
CENTRAL INDIANA

CITY           SKY/WX    TMP DP  RH WIND       PRES   REMARKS
LAFAYETTE      PTSUNNY   80  57  45 S15G22    30.09F
KOKOMO*        MOSUNNY   82  57  42 S20G31    30.13F
MUNCIE*        PTSUNNY   82  52  35 S14G22    30.17F
INDIANAPOLIS   PTSUNNY   83  55  38 S15G22    30.13F

$$
MIZ043>046-050>051-056>058-064>065-071>073-077>080-242000-
SOUTHWEST LOWER MICHIGAN

CITY           SKY/WX    TMP DP  RH WIND       PRES   REMARKS
BATTLE CREEK   CLOUDY    75  52  44 S8        30.18F
BENTON HARBOR  CLOUDY    73  55  53 E9        30.13F
COLDWATER*     CLOUDY    72  56  56 S7        30.18F
HILLSDALE*     CLOUDY    75  52  44 SE6       30.20F
HOLLAND        LGT RAIN  71  53  52 E5        30.17F
GRAND RAPIDS   CLOUDY    73  46  38 CALM      30.18F
KALAMAZOO      CLOUDY    74  53  48 S5        30.17F
STURGIS*       CLOUDY    75  55  50 S8        30.16F
THREE RIVERS*  CLOUDY    74  55  52 SE3       30.16F

$$
OHZ001>008-015>018-024>025-242000-
NORTHWEST OHIO

CITY           SKY/WX    TMP DP  RH WIND       PRES   REMARKS
DEFIANCE       PTSUNNY   80  55  42 S12G18    30.17F
FINDLAY        PTSUNNY   81  54  39 S6        30.18F
TOLEDO EXPRESS CLOUDY    78  51  38 S5        30.18F
TOLEDO METCALF CLOUDY    80  50  34 S8        30.19F
LIMA           PTSUNNY   79  54  41 S10G20    30.19F

$$
AND FOR LAKE MICHIGAN COASTAL AND OPEN LAKE BUOY OBSERVATIONS

STATION/POSITION TEMP    WIND        PRES    VSBY  WAVE
                 AIR SEA DIR/SP/G                  HT/PER
                 (F)     (DEG/KT/KT) (MB)    (MI)  (FT/S)
CALUMET HARBOR    61      70/  7/  9   N/A
MICHIGAN CITY     74     100/  8/ 11   N/A
BURNS HARBOR      77     100/  7/ 11 1019.3S
SAINT JOSEPH      75      10/  1/  4 1020.7F
SOUTH LAKE BUOY   44 38   60/  8/ 10 1020.9F         0
4 MI NW BRIDGMAN  67 55  150/  6/  8   N/A           0
MICHIGAN CITY     67 54  110/  6/  8   N/A           0

$$
&&


USA.gov is the U.S. government's official web portal to all federal, state and local government web resources and services.